,,,PA_Meas_PMT16A,,PR_Meas_QMR101_102,,RH_Meas_QMH101,,SR_Meas_QMS101,,TA_Meas_QMH101,,GenWind,,GenWind,
date,time,status,PA,status,PR,status,RH,status,SR,status,TA,status,DirAvg,status,SpdAvg,
2011-07-15, 00:00:04,VALID,1000.6,VALID,0,VALID,91.4257,VALID,0,VALID,22.825,VALID,6,VALID,0.160938,
2011-07-15, 00:01:04,VALID,1000.57,VALID,0,VALID,91.4563,VALID,0,VALID,22.825,VALID,6,VALID,0,
2011-07-15, 00:02:04,VALID,1000.58,VALID,0,VALID,91.4257,VALID,0,VALID,22.825,VALID,6,VALID,0.370703,
2011-07-15, 00:03:04,VALID,1000.58,VALID,0,VALID,91.38,VALID,0,VALID,22.7842,VALID,6,VALID,0.345313,
2011-07-15, 00:04:04,VALID,1000.57,VALID,0,VALID,91.3418,VALID,0,VALID,22.786,VALID,31,VALID,0.750781,
2011-07-15, 00:05:04,VALID,1000.57,VALID,0,VALID,91.3266,VALID,0,VALID,22.8055,VALID,46,VALID,0.837891,
2011-07-15, 00:06:04,VALID,1000.59,VALID,0,VALID,91.1892,VALID,0,VALID,22.825,VALID,51,VALID,1.09805,
2011-07-15, 00:07:04,VALID,1000.59,VALID,0,VALID,90.9374,VALID,0,VALID,22.825,VALID,69,VALID,1.0457,
2011-07-15, 00:08:04,VALID,1000.62,VALID,0,VALID,90.7467,VALID,0,VALID,22.8055,VALID,69,VALID,0.90625,
2011-07-15, 00:09:04,VALID,1000.59,VALID,0,VALID,90.7391,VALID,0,VALID,22.8445,VALID,79,VALID,0.597656,
2011-07-15, 00:10:04,VALID,1000.56,VALID,0,VALID,90.5483,VALID,0,VALID,22.8232,VALID,79,VALID,0.691797,
2011-07-15, 00:11:04,VALID,1000.57,VALID,0,VALID,90.4186,VALID,0,VALID,22.864,VALID,73,VALID,0.845312,
2011-07-15, 00:12:04,VALID,1000.56,VALID,0,VALID,90.2508,VALID,0,VALID,22.864,VALID,61,VALID,0.905078,
2011-07-15, 00:13:04,VALID,1000.59,VALID,0,VALID,90.0982,VALID,0,VALID,22.8427,VALID,49,VALID,0.840234,
2011-07-15, 00:14:04,VALID,1000.56,VALID,0,VALID,90.0677,VALID,0,VALID,22.864,VALID,49,VALID,0.975391,
2011-07-15, 00:15:04,VALID,1000.56,VALID,0,VALID,89.9761,VALID,0,VALID,22.8232,VALID,49,VALID,0.764063,
2011-07-15, 00:16:04,VALID,1000.52,VALID,0,VALID,89.8769,VALID,0,VALID,22.7647,VALID,49,VALID,0.551953,
2011-07-15, 00:17:04,VALID,1000.54,VALID,0,VALID,89.9227,VALID,0,VALID,22.685,VALID,49,VALID,0.519922,
2011-07-15, 00:18:04,VALID,1000.47,VALID,0,VALID,89.999,VALID,0,VALID,22.6672,VALID,49,VALID,0.445313,
2011-07-15, 00:19:04,VALID,1000.53,VALID,0,VALID,90.1363,VALID,0,VALID,22.6282,VALID,49,VALID,0.522656,
2011-07-15, 00:20:04,VALID,1000.51,VALID,0,VALID,90.2126,VALID,0,VALID,22.5696,VALID,49,VALID,0.341406,
2011-07-15, 00:21:04,VALID,1000.52,VALID,0,VALID,90.3576,VALID,0,VALID,22.5501,VALID,49,VALID,0.108984,
2011-07-15, 00:22:04,VALID,1000.52,VALID,0,VALID,90.4949,VALID,0,VALID,22.5306,VALID,49,VALID,0,
2011-07-15, 00:23:04,VALID,1000.53,VALID,0,VALID,90.7696,VALID,0,VALID,22.5501,VALID,49,VALID,0.607813,
2011-07-15, 00:24:04,VALID,1000.49,VALID,0,VALID,90.9298,VALID,0,VALID,22.5501,VALID,49,VALID,0.786328,
2011-07-15, 00:25:04,VALID,1000.48,VALID,0,VALID,90.9451,VALID,0,VALID,22.5501,VALID,49,VALID,0.740625,
2011-07-15, 00:26:04,VALID,1000.48,VALID,0,VALID,91.0366,VALID,0,VALID,22.5501,VALID,49,VALID,0.939453,
2011-07-15, 00:27:04,VALID,1000.44,VALID,0,VALID,91.1053,VALID,0,VALID,22.5696,VALID,49,VALID,0.951953,
2011-07-15, 00:28:04,VALID,1000.44,VALID,0,VALID,90.9832,VALID,0,VALID,22.5501,VALID,49,VALID,0.729688,
2011-07-15, 00:29:04,VALID,1000.45,VALID,0,VALID,90.678,VALID,0.112286,VALID,22.4721,VALID,49,VALID,0.639844,
2011-07-15, 00:30:04,VALID,1000.48,VALID,0,VALID,90.7009,VALID,0,VALID,22.4314,VALID,49,VALID,0.376172,
2011-07-15, 00:31:04,VALID,1000.41,VALID,0,VALID,90.7391,VALID,0,VALID,22.4136,VALID,49,VALID,0.167578,
2011-07-15, 00:32:04,VALID,1000.45,VALID,0,VALID,90.8535,VALID,0,VALID,22.3924,VALID,49,VALID,0.329688,
2011-07-15, 00:33:04,VALID,1000.41,VALID,0,VALID,90.9832,VALID,0,VALID,22.4136,VALID,49,VALID,0.336328,
2011-07-15, 00:34:04,VALID,1000.43,VALID,0,VALID,91.1511,VALID,0.112286,VALID,22.4136,VALID,49,VALID,0.391406,
2011-07-15, 00:35:04,VALID,1000.39,VALID,0,VALID,91.1587,VALID,0.112286,VALID,22.3941,VALID,49,VALID,0.347656,
2011-07-15, 00:36:04,VALID,1000.4,VALID,0,VALID,91.1968,VALID,0,VALID,22.3746,VALID,49,VALID,0.428906,
2011-07-15, 00:37:04,VALID,1000.37,VALID,0,VALID,91.3723,VALID,0,VALID,22.3941,VALID,49,VALID,0.657812,
2011-07-15, 00:38:04,VALID,1000.38,VALID,0,VALID,91.4944,VALID,0,VALID,22.3729,VALID,49,VALID,0.880078,
2011-07-15, 00:39:04,VALID,1000.39,VALID,0,VALID,91.5326,VALID,0,VALID,22.3941,VALID,49,VALID,1.03008,
2011-07-15, 00:40:04,VALID,1000.37,VALID,0,VALID,91.6165,VALID,0,VALID,22.4331,VALID,49,VALID,0.953906,
2011-07-15, 00:41:04,VALID,1000.37,VALID,0,VALID,91.6088,VALID,0,VALID,22.4526,VALID,49,VALID,1.06875,
2011-07-15, 00:42:04,VALID,1000.37,VALID,0,VALID,91.4639,VALID,0,VALID,22.4136,VALID,49,VALID,1.17695,
2011-07-15, 00:43:04,VALID,1000.35,VALID,0,VALID,91.2503,VALID,0,VALID,22.3941,VALID,49,VALID,1.39258,
2011-07-15, 00:44:04,VALID,1000.35,VALID,0,VALID,91.1129,VALID,0.112286,VALID,22.3746,VALID,48,VALID,1.43633,
2011-07-15, 00:45:04,VALID,1000.35,VALID,0,VALID,91.029,VALID,0,VALID,22.3551,VALID,44,VALID,1.27305,
2011-07-15, 00:46:04,VALID,1000.29,VALID,0,VALID,91.0214,VALID,0,VALID,22.2966,VALID,44,VALID,1.20313,
2011-07-15, 00:47:04,VALID,1000.25,VALID,0,VALID,91.09,VALID,0,VALID,22.2966,VALID,44,VALID,1.17383,
2011-07-15, 00:48:04,VALID,1000.26,VALID,0,VALID,91.174,VALID,0,VALID,22.2576,VALID,44,VALID,1.09258,
2011-07-15, 00:49:04,VALID,1000.26,VALID,0,VALID,91.2426,VALID,0,VALID,22.2186,VALID,44,VALID,0.869141,
2011-07-15, 00:50:04,VALID,1000.22,VALID,0,VALID,91.3418,VALID,0,VALID,22.199,VALID,44,VALID,0.890625,
2011-07-15, 00:51:04,VALID,1000.26,VALID,0,VALID,91.4791,VALID,0,VALID,22.1795,VALID,44,VALID,0.698047,
2011-07-15, 00:52:04,VALID,1000.25,VALID,0,VALID,91.586,VALID,0,VALID,22.1795,VALID,44,VALID,0.467578,
2011-07-15, 00:53:04,VALID,1000.22,VALID,0,VALID,91.6241,VALID,0,VALID,22.16,VALID,44,VALID,0.0558594,
2011-07-15, 00:54:04,VALID,1000.21,VALID,0,VALID,91.6699,VALID,0,VALID,22.0998,VALID,44,VALID,0.246875,
2011-07-15, 00:55:04,VALID,1000.19,VALID,0,VALID,91.7385,VALID,0,VALID,22.1405,VALID,44,VALID,0.321094,
2011-07-15, 00:56:04,VALID,1000.2,VALID,0,VALID,91.7767,VALID,0,VALID,22.121,VALID,44,VALID,0.457031,
2011-07-15, 00:57:04,VALID,1000.15,VALID,0,VALID,91.8759,VALID,0,VALID,22.121,VALID,44,VALID,0.308203,
2011-07-15, 00:58:04,VALID,1000.16,VALID,0,VALID,91.9293,VALID,0,VALID,22.121,VALID,44,VALID,0.078125,
2011-07-15, 00:59:04,VALID,1000.17,VALID,0,VALID,91.9598,VALID,0,VALID,22.0803,VALID,44,VALID,0,
2011-07-15, 01:00:04,VALID,1000.17,VALID,0,VALID,91.998,VALID,0,VALID,22.1032,VALID,44,VALID,0,
2011-07-15, 01:01:04,VALID,1000.17,VALID,0,VALID,92.0209,VALID,0,VALID,22.1032,VALID,44,VALID,0.307422,
2011-07-15, 01:02:04,VALID,1000.15,VALID,0,VALID,92.1124,VALID,0,VALID,22.1227,VALID,44,VALID,0.640625,
2011-07-15, 01:03:04,VALID,1000.14,VALID,0,VALID,92.1811,VALID,0,VALID,22.1422,VALID,44,VALID,0.738672,
2011-07-15, 01:04:04,VALID,1000.16,VALID,0,VALID,92.2192,VALID,0,VALID,22.1405,VALID,30,VALID,0.776953,
2011-07-15, 01:05:04,VALID,1000.17,VALID,0,VALID,92.2192,VALID,0,VALID,22.1617,VALID,16,VALID,0.865234,
2011-07-15, 01:06:04,VALID,1000.13,VALID,0,VALID,92.204,VALID,0,VALID,22.1617,VALID,16,VALID,0.822266,
2011-07-15, 01:07:04,VALID,1000.1,VALID,0,VALID,92.1887,VALID,0,VALID,22.16,VALID,16,VALID,0.684375,
2011-07-15, 01:08:04,VALID,1000.12,VALID,0,VALID,92.1429,VALID,0,VALID,22.1422,VALID,16,VALID,0.385938,
2011-07-15, 01:09:04,VALID,1000.13,VALID,0,VALID,92.12,VALID,0,VALID,22.1422,VALID,16,VALID,0.139453,
2011-07-15, 01:10:04,VALID,1000.12,VALID,0,VALID,92.1506,VALID,0,VALID,22.121,VALID,16,VALID,0.0125,
2011-07-15, 01:11:04,VALID,1000.12,VALID,0,VALID,92.1429,VALID,0,VALID,22.121,VALID,16,VALID,0.286328,
2011-07-15, 01:12:04,VALID,1000.15,VALID,0,VALID,92.1734,VALID,0,VALID,22.1617,VALID,16,VALID,0.138281,
2011-07-15, 01:13:04,VALID,1000.14,VALID,0,VALID,92.1963,VALID,0,VALID,22.1405,VALID,16,VALID,0.0539063,
2011-07-15, 01:14:04,VALID,1000.16,VALID,0,VALID,92.2192,VALID,0,VALID,22.1812,VALID,16,VALID,0,
2011-07-15, 01:15:04,VALID,1000.18,VALID,0,VALID,92.2345,VALID,0,VALID,22.1812,VALID,16,VALID,0,
2011-07-15, 01:16:04,VALID,1000.17,VALID,0,VALID,92.2421,VALID,0,VALID,22.1812,VALID,16,VALID,0,
2011-07-15, 01:17:04,VALID,1000.17,VALID,0,VALID,92.2268,VALID,0,VALID,22.1617,VALID,16,VALID,0,
2011-07-15, 01:18:04,VALID,1000.17,VALID,0,VALID,92.1963,VALID,0,VALID,22.1617,VALID,16,VALID,0,
2011-07-15, 01:19:04,VALID,1000.17,VALID,0,VALID,92.2192,VALID,0,VALID,22.1812,VALID,16,VALID,0,
2011-07-15, 01:20:04,VALID,1000.14,VALID,0,VALID,92.2268,VALID,0,VALID,22.2007,VALID,16,VALID,0.355859,
2011-07-15, 01:21:04,VALID,1000.12,VALID,0,VALID,92.2345,VALID,0,VALID,22.2202,VALID,16,VALID,0.861328,
2011-07-15, 01:22:04,VALID,1000.13,VALID,0,VALID,92.2192,VALID,0,VALID,22.2202,VALID,16,VALID,0.941797,
2011-07-15, 01:23:04,VALID,1000.12,VALID,0,VALID,92.1963,VALID,0,VALID,22.2397,VALID,18,VALID,0.969531,
2011-07-15, 01:24:04,VALID,1000.13,VALID,0,VALID,92.1048,VALID,0,VALID,22.2397,VALID,18,VALID,0.810547,
2011-07-15, 01:25:04,VALID,1000.13,VALID,0,VALID,91.998,VALID,0,VALID,22.2007,VALID,18,VALID,0.684375,
2011-07-15, 01:26:04,VALID,1000.15,VALID,0,VALID,91.9369,VALID,0,VALID,22.2219,VALID,18,VALID,0.790234,
2011-07-15, 01:27:04,VALID,1000.16,VALID,0,VALID,91.9445,VALID,0,VALID,22.2202,VALID,18,VALID,0.764453,
2011-07-15, 01:28:04,VALID,1000.11,VALID,0,VALID,91.9369,VALID,0,VALID,22.2202,VALID,18,VALID,0.763672,
2011-07-15, 01:29:04,VALID,1000.07,VALID,0,VALID,91.9369,VALID,0,VALID,22.199,VALID,69,VALID,0.839453,
2011-07-15, 01:30:04,VALID,1000.05,VALID,0,VALID,92.0056,VALID,0,VALID,22.2397,VALID,69,VALID,0.757422,
2011-07-15, 01:31:04,VALID,1000.03,VALID,0,VALID,91.9751,VALID,0,VALID,22.2202,VALID,78,VALID,0.908203,
2011-07-15, 01:32:04,VALID,1000.04,VALID,0,VALID,92.0437,VALID,0,VALID,22.2788,VALID,78,VALID,1.10078,
2011-07-15, 01:33:04,VALID,1000.03,VALID,0,VALID,92.0971,VALID,0,VALID,22.3178,VALID,78,VALID,0.834766,
2011-07-15, 01:34:04,VALID,1000.06,VALID,0,VALID,92.0209,VALID,0,VALID,22.2788,VALID,78,VALID,0.629687,
2011-07-15, 01:35:04,VALID,1000.08,VALID,0,VALID,91.9064,VALID,0,VALID,22.2397,VALID,78,VALID,0.488672,
2011-07-15, 01:36:04,VALID,1000.1,VALID,0,VALID,91.8759,VALID,0,VALID,22.2202,VALID,78,VALID,0.472266,
2011-07-15, 01:37:04,VALID,1000.08,VALID,0,VALID,91.8683,VALID,0,VALID,22.2202,VALID,78,VALID,0.459375,
2011-07-15, 01:38:04,VALID,1000.05,VALID,0,VALID,91.8911,VALID,0,VALID,22.2007,VALID,77,VALID,0.640234,
2011-07-15, 01:39:04,VALID,1000.05,VALID,0,VALID,91.9751,VALID,0,VALID,22.2202,VALID,69,VALID,0.587891,
2011-07-15, 01:40:04,VALID,1000.09,VALID,0,VALID,92.059,VALID,0,VALID,22.2592,VALID,69,VALID,0.430859,
2011-07-15, 01:41:04,VALID,1000.08,VALID,0,VALID,92.0743,VALID,0,VALID,22.2202,VALID,66,VALID,0.659375,
2011-07-15, 01:42:04,VALID,1000.07,VALID,0,VALID,92.0895,VALID,0,VALID,22.2007,VALID,9,VALID,1.16484,
2011-07-15, 01:43:04,VALID,1000.03,VALID,0,VALID,92.0819,VALID,0,VALID,22.1812,VALID,4,VALID,0.855469,
2011-07-15, 01:44:04,VALID,1000.04,VALID,0,VALID,92.1124,VALID,0,VALID,22.1617,VALID,1,VALID,0.947266,
2011-07-15, 01:45:04,VALID,1000.04,VALID,0,VALID,92.1277,VALID,0,VALID,22.1405,VALID,1,VALID,0.902344,
2011-07-15, 01:46:04,VALID,1000.03,VALID,0,VALID,92.1887,VALID,0,VALID,22.1812,VALID,1,VALID,0.826563,
2011-07-15, 01:47:04,VALID,1000.03,VALID,0,VALID,92.2421,VALID,0,VALID,22.2007,VALID,1,VALID,0.676172,
2011-07-15, 01:48:04,VALID,1000.01,VALID,0,VALID,92.3031,VALID,0,VALID,22.2007,VALID,1,VALID,0.675781,
2011-07-15, 01:49:04,VALID,1000.01,VALID,0,VALID,92.3413,VALID,0,VALID,22.2202,VALID,1,VALID,0.602344,
2011-07-15, 01:50:04,VALID,999.978,VALID,0,VALID,92.3566,VALID,0,VALID,22.2397,VALID,1,VALID,0.580859,
2011-07-15, 01:51:04,VALID,999.991,VALID,0,VALID,92.3871,VALID,0,VALID,22.2397,VALID,1,VALID,0.838672,
2011-07-15, 01:52:04,VALID,999.996,VALID,0,VALID,92.3718,VALID,0,VALID,22.2397,VALID,1,VALID,0.713672,
2011-07-15, 01:53:04,VALID,999.975,VALID,0,VALID,92.3871,VALID,0,VALID,22.2397,VALID,1,VALID,0.73125,
2011-07-15, 01:54:04,VALID,999.992,VALID,0,VALID,92.3566,VALID,0,VALID,22.2592,VALID,1,VALID,0.613281,
2011-07-15, 01:55:04,VALID,999.947,VALID,0,VALID,92.3642,VALID,0,VALID,22.2592,VALID,1,VALID,0.566016,
2011-07-15, 01:56:04,VALID,999.938,VALID,0,VALID,92.3718,VALID,0,VALID,22.2983,VALID,1,VALID,0.759375,
2011-07-15, 01:57:04,VALID,999.976,VALID,0,VALID,92.3489,VALID,0,VALID,22.2983,VALID,8,VALID,1.0125,
2011-07-15, 01:58:04,VALID,999.98,VALID,0,VALID,92.3413,VALID,0,VALID,22.2983,VALID,11,VALID,0.733203,
2011-07-15, 01:59:04,VALID,999.956,VALID,0,VALID,92.3413,VALID,0,VALID,22.3178,VALID,27,VALID,0.632813,
2011-07-15, 02:00:04,VALID,999.952,VALID,0,VALID,92.3413,VALID,0.112286,VALID,22.3551,VALID,28,VALID,0.523438,
2011-07-15, 02:01:04,VALID,999.92,VALID,0,VALID,92.3718,VALID,0,VALID,22.3941,VALID,28,VALID,0.749219,
2011-07-15, 02:02:04,VALID,999.953,VALID,0,VALID,92.4405,VALID,0,VALID,22.3729,VALID,59,VALID,0.766797,
2011-07-15, 02:03:04,VALID,999.911,VALID,0,VALID,92.4634,VALID,0.112286,VALID,22.4119,VALID,59,VALID,0.576172,
2011-07-15, 02:04:04,VALID,999.929,VALID,0,VALID,92.4863,VALID,0,VALID,22.4721,VALID,59,VALID,0.419531,
2011-07-15, 02:05:04,VALID,999.908,VALID,0,VALID,92.5091,VALID,0,VALID,22.4899,VALID,59,VALID,0.361719,
2011-07-15, 02:06:04,VALID,999.916,VALID,0,VALID,92.5397,VALID,0,VALID,22.5306,VALID,59,VALID,0.452734,
2011-07-15, 02:07:04,VALID,999.916,VALID,0,VALID,92.532,VALID,0,VALID,22.5094,VALID,59,VALID,0.370313,
2011-07-15, 02:08:04,VALID,999.904,VALID,0,VALID,92.5397,VALID,0,VALID,22.5484,VALID,59,VALID,0.311328,
2011-07-15, 02:09:04,VALID,999.896,VALID,0,VALID,92.5626,VALID,0,VALID,22.5892,VALID,115,VALID,0.790234,
2011-07-15, 02:10:04,VALID,999.872,VALID,0,VALID,92.5702,VALID,0,VALID,22.6477,VALID,116,VALID,0.799219,
2011-07-15, 02:11:04,VALID,999.835,VALID,0,VALID,92.5702,VALID,0,VALID,22.7045,VALID,116,VALID,0.718359,
2011-07-15, 02:12:04,VALID,999.782,VALID,0,VALID,92.5626,VALID,0,VALID,22.7647,VALID,105,VALID,0.596484,
2011-07-15, 02:13:04,VALID,999.794,VALID,0,VALID,92.5397,VALID,0,VALID,22.8037,VALID,103,VALID,0.629297,
2011-07-15, 02:14:04,VALID,999.774,VALID,0,VALID,92.4863,VALID,0,VALID,22.8623,VALID,103,VALID,0.641797,
2011-07-15, 02:15:04,VALID,999.796,VALID,0,VALID,92.4405,VALID,0,VALID,22.8818,VALID,110,VALID,0.826953,
2011-07-15, 02:16:04,VALID,999.761,VALID,0,VALID,92.3947,VALID,0,VALID,22.942,VALID,116,VALID,0.939453,
2011-07-15, 02:17:04,VALID,999.773,VALID,0,VALID,92.2879,VALID,0,VALID,22.9403,VALID,116,VALID,1.04102,
2011-07-15, 02:18:04,VALID,999.735,VALID,0,VALID,92.1734,VALID,0,VALID,22.9811,VALID,116,VALID,0.99375,
2011-07-15, 02:19:04,VALID,999.751,VALID,0,VALID,92.0514,VALID,0,VALID,23.0201,VALID,106,VALID,1.05859,
2011-07-15, 02:20:04,VALID,999.69,VALID,0,VALID,91.9217,VALID,0,VALID,23.0201,VALID,98,VALID,0.851172,
2011-07-15, 02:21:04,VALID,999.666,VALID,0,VALID,91.8225,VALID,0,VALID,23.0183,VALID,103,VALID,0.800781,
2011-07-15, 02:22:04,VALID,999.634,VALID,0,VALID,91.7157,VALID,0,VALID,23.0591,VALID,99,VALID,0.714844,
2011-07-15, 02:23:04,VALID,999.576,VALID,0,VALID,91.6241,VALID,0,VALID,23.0378,VALID,99,VALID,0.456641,
2011-07-15, 02:24:04,VALID,999.546,VALID,0,VALID,91.5249,VALID,0,VALID,23.0591,VALID,99,VALID,0.737109,
2011-07-15, 02:25:04,VALID,999.579,VALID,0,VALID,91.4334,VALID,0,VALID,23.0396,VALID,99,VALID,0.648047,
2011-07-15, 02:26:04,VALID,999.582,VALID,0,VALID,91.3494,VALID,0,VALID,22.9988,VALID,99,VALID,0.616797,
2011-07-15, 02:27:04,VALID,999.595,VALID,0,VALID,91.2579,VALID,0,VALID,23.0201,VALID,99,VALID,0.343359,
2011-07-15, 02:28:04,VALID,999.568,VALID,0,VALID,91.1892,VALID,0,VALID,22.9988,VALID,101,VALID,0.624219,
2011-07-15, 02:29:04,VALID,999.557,VALID,0,VALID,91.1129,VALID,0,VALID,23.0006,VALID,112,VALID,0.654297,
2011-07-15, 02:30:04,VALID,999.512,VALID,0,VALID,91.0137,VALID,0,VALID,22.9811,VALID,112,VALID,0.314844,
2011-07-15, 02:31:04,VALID,999.524,VALID,0,VALID,90.9603,VALID,0,VALID,22.9615,VALID,112,VALID,0.0316406,
2011-07-15, 02:32:04,VALID,999.52,VALID,0,VALID,90.9222,VALID,0,VALID,22.942,VALID,112,VALID,0.00117188,
2011-07-15, 02:33:04,VALID,999.552,VALID,0,VALID,90.9222,VALID,0,VALID,22.942,VALID,112,VALID,0.065625,
2011-07-15, 02:34:04,VALID,999.566,VALID,0,VALID,90.9069,VALID,0,VALID,22.9225,VALID,112,VALID,0.112109,
2011-07-15, 02:35:04,VALID,999.607,VALID,0,VALID,90.9146,VALID,0,VALID,22.9225,VALID,74,VALID,0.615234,
2011-07-15, 02:36:04,VALID,999.61,VALID,0,VALID,90.884,VALID,0,VALID,22.9013,VALID,74,VALID,0.269141,
2011-07-15, 02:37:04,VALID,999.605,VALID,0,VALID,90.8764,VALID,0,VALID,22.9225,VALID,74,VALID,0.237891,
2011-07-15, 02:38:04,VALID,999.61,VALID,0,VALID,90.8383,VALID,0,VALID,22.903,VALID,74,VALID,0,
2011-07-15, 02:39:04,VALID,999.605,VALID,0,VALID,90.8459,VALID,0,VALID,22.903,VALID,74,VALID,0,
2011-07-15, 02:40:04,VALID,999.631,VALID,0,VALID,90.8459,VALID,0,VALID,22.8818,VALID,74,VALID,0.121484,
2011-07-15, 02:41:04,VALID,999.642,VALID,0,VALID,90.9069,VALID,0,VALID,22.8818,VALID,74,VALID,0.14375,
2011-07-15, 02:42:04,VALID,999.643,VALID,0,VALID,90.9069,VALID,0,VALID,22.8835,VALID,74,VALID,0.349219,
2011-07-15, 02:43:04,VALID,999.678,VALID,0,VALID,90.9298,VALID,0,VALID,22.8623,VALID,74,VALID,0.551562,
2011-07-15, 02:44:04,VALID,999.686,VALID,0,VALID,90.8764,VALID,0,VALID,22.864,VALID,74,VALID,0.532812,
2011-07-15, 02:45:04,VALID,999.679,VALID,0,VALID,90.8688,VALID,0,VALID,22.8445,VALID,74,VALID,0.328906,
2011-07-15, 02:46:04,VALID,999.684,VALID,0,VALID,90.8154,VALID,0,VALID,22.864,VALID,74,VALID,0.401172,
2011-07-15, 02:47:04,VALID,999.675,VALID,0,VALID,90.7925,VALID,0,VALID,22.864,VALID,74,VALID,0.339063,
2011-07-15, 02:48:04,VALID,999.669,VALID,0,VALID,90.8306,VALID,0,VALID,22.8835,VALID,74,VALID,0.433203,
2011-07-15, 02:49:04,VALID,999.684,VALID,0,VALID,90.8383,VALID,0,VALID,22.8623,VALID,74,VALID,0.45,
2011-07-15, 02:50:04,VALID,999.68,VALID,0,VALID,90.7696,VALID,0,VALID,22.8835,VALID,74,VALID,0.499219,
2011-07-15, 02:51:04,VALID,999.657,VALID,0,VALID,90.7162,VALID,0,VALID,22.8623,VALID,74,VALID,0.456641,
2011-07-15, 02:52:04,VALID,999.658,VALID,0,VALID,90.6857,VALID,0,VALID,22.8623,VALID,74,VALID,0.559766,
2011-07-15, 02:53:04,VALID,999.708,VALID,0,VALID,90.6246,VALID,0,VALID,22.903,VALID,74,VALID,0.68125,
2011-07-15, 02:54:04,VALID,999.705,VALID,0,VALID,90.5712,VALID,0,VALID,22.942,VALID,60,VALID,0.564062,
2011-07-15, 02:55:04,VALID,999.719,VALID,0,VALID,90.5102,VALID,0,VALID,22.9615,VALID,60,VALID,0.304297,
2011-07-15, 02:56:04,VALID,999.691,VALID,0,VALID,90.2966,VALID,0,VALID,22.9598,VALID,60,VALID,0.319531,
2011-07-15, 02:57:04,VALID,999.705,VALID,0,VALID,90.1058,VALID,0,VALID,22.9615,VALID,60,VALID,0.398828,
2011-07-15, 02:58:04,VALID,999.688,VALID,0,VALID,89.9532,VALID,0,VALID,22.9403,VALID,60,VALID,0.358984,
2011-07-15, 02:59:04,VALID,999.716,VALID,0,VALID,89.8083,VALID,0,VALID,22.9615,VALID,60,VALID,0.391797,
2011-07-15, 03:00:04,VALID,999.719,VALID,0,VALID,89.7396,VALID,0,VALID,22.9615,VALID,17,VALID,0.689062,
2011-07-15, 03:01:04,VALID,999.715,VALID,0,VALID,89.7854,VALID,0,VALID,22.9403,VALID,17,VALID,0.334766,
2011-07-15, 03:02:04,VALID,999.701,VALID,0,VALID,89.8617,VALID,0,VALID,22.942,VALID,17,VALID,0.317969,
2011-07-15, 03:03:04,VALID,999.716,VALID,0,VALID,89.9685,VALID,0,VALID,22.903,VALID,17,VALID,0.194141,
2011-07-15, 03:04:04,VALID,999.682,VALID,0,VALID,90.0219,VALID,0,VALID,22.8835,VALID,17,VALID,0.446484,
2011-07-15, 03:05:04,VALID,999.718,VALID,0,VALID,90.0753,VALID,0,VALID,22.8445,VALID,17,VALID,0.65,
2011-07-15, 03:06:04,VALID,999.707,VALID,0,VALID,90.0753,VALID,0,VALID,22.8037,VALID,17,VALID,0.397266,
2011-07-15, 03:07:04,VALID,999.702,VALID,0,VALID,90.0982,VALID,0,VALID,22.7842,VALID,17,VALID,0.193359,
2011-07-15, 03:08:04,VALID,999.741,VALID,0,VALID,90.1134,VALID,0,VALID,22.786,VALID,17,VALID,0,
2011-07-15, 03:09:04,VALID,999.742,VALID,0,VALID,90.1287,VALID,0,VALID,22.786,VALID,17,VALID,0,
2011-07-15, 03:10:04,VALID,999.724,VALID,0,VALID,90.1745,VALID,0,VALID,22.786,VALID,17,VALID,0.641016,
2011-07-15, 03:11:04,VALID,999.729,VALID,0,VALID,90.1974,VALID,0,VALID,22.7647,VALID,17,VALID,0.780859,
2011-07-15, 03:12:04,VALID,999.713,VALID,0,VALID,90.2355,VALID,0,VALID,22.8037,VALID,17,VALID,0.942969,
2011-07-15, 03:13:04,VALID,999.75,VALID,0,VALID,90.205,VALID,0,VALID,22.825,VALID,17,VALID,0.974609,
2011-07-15, 03:14:04,VALID,999.749,VALID,0,VALID,90.205,VALID,0,VALID,22.8037,VALID,17,VALID,1.05898,
2011-07-15, 03:15:04,VALID,999.77,VALID,0,VALID,90.1821,VALID,0,VALID,22.8055,VALID,13,VALID,1.18711,
2011-07-15, 03:16:04,VALID,999.755,VALID,0,VALID,90.2584,VALID,0,VALID,22.8055,VALID,11,VALID,1.26641,
2011-07-15, 03:17:04,VALID,999.757,VALID,0,VALID,90.3423,VALID,0,VALID,22.7452,VALID,11,VALID,1.21055,
2011-07-15, 03:18:04,VALID,999.762,VALID,0,VALID,90.4873,VALID,0,VALID,22.7257,VALID,11,VALID,1.00742,
2011-07-15, 03:19:04,VALID,999.75,VALID,0,VALID,90.6551,VALID,0,VALID,22.7274,VALID,1,VALID,1.17773,
2011-07-15, 03:20:04,VALID,999.727,VALID,0,VALID,90.8077,VALID,0,VALID,22.7257,VALID,4,VALID,1.36289,
2011-07-15, 03:21:04,VALID,999.701,VALID,0,VALID,90.8993,VALID,0,VALID,22.7274,VALID,4,VALID,0.941797,
2011-07-15, 03:22:04,VALID,999.673,VALID,0,VALID,91.029,VALID,0,VALID,22.7274,VALID,346,VALID,0.605859,
2011-07-15, 03:23:04,VALID,999.656,VALID,0,VALID,91.0671,VALID,0,VALID,22.6884,VALID,346,VALID,0.532422,
2011-07-15, 03:24:04,VALID,999.652,VALID,0,VALID,91.09,VALID,0,VALID,22.6884,VALID,346,VALID,0.141016,
2011-07-15, 03:25:04,VALID,999.656,VALID,0,VALID,91.1129,VALID,0,VALID,22.6282,VALID,346,VALID,0.000390625,
2011-07-15, 03:26:04,VALID,999.66,VALID,0,VALID,91.1587,VALID,0,VALID,22.6494,VALID,346,VALID,0,
2011-07-15, 03:27:04,VALID,999.666,VALID,0,VALID,91.1892,VALID,0,VALID,22.6494,VALID,346,VALID,0.334766,
2011-07-15, 03:28:04,VALID,999.68,VALID,0,VALID,91.1587,VALID,0,VALID,22.6104,VALID,35,VALID,0.749609,
2011-07-15, 03:29:04,VALID,999.695,VALID,0,VALID,90.9985,VALID,0,VALID,22.5696,VALID,40,VALID,1.10898,
2011-07-15, 03:30:04,VALID,999.692,VALID,0,VALID,90.8459,VALID,0,VALID,22.5306,VALID,40,VALID,0.744141,
2011-07-15, 03:31:04,VALID,999.669,VALID,0,VALID,90.7009,VALID,0,VALID,22.5306,VALID,42,VALID,1.02813,
2011-07-15, 03:32:04,VALID,999.685,VALID,0,VALID,90.7925,VALID,0,VALID,22.5111,VALID,45,VALID,1.14063,
2011-07-15, 03:33:04,VALID,999.653,VALID,0,VALID,90.8993,VALID,0,VALID,22.5714,VALID,45,VALID,0.939844,
2011-07-15, 03:34:04,VALID,999.647,VALID,0,VALID,90.8917,VALID,0,VALID,22.5306,VALID,45,VALID,0.851172,
2011-07-15, 03:35:04,VALID,999.636,VALID,0,VALID,90.8688,VALID,0,VALID,22.5111,VALID,45,VALID,0.804688,
2011-07-15, 03:36:04,VALID,999.643,VALID,0,VALID,90.9222,VALID,0,VALID,22.4916,VALID,45,VALID,0.937109,
2011-07-15, 03:37:04,VALID,999.663,VALID,0,VALID,90.9146,VALID,0,VALID,22.4721,VALID,45,VALID,1.00977,
2011-07-15, 03:38:04,VALID,999.683,VALID,0,VALID,90.8688,VALID,0,VALID,22.4331,VALID,45,VALID,0.966406,
2011-07-15, 03:39:04,VALID,999.681,VALID,0,VALID,90.9146,VALID,0,VALID,22.4331,VALID,45,VALID,1.05781,
2011-07-15, 03:40:04,VALID,999.717,VALID,0,VALID,90.9603,VALID,0,VALID,22.4348,VALID,45,VALID,1.09609,
2011-07-15, 03:41:04,VALID,999.723,VALID,0,VALID,91.0748,VALID,0,VALID,22.4136,VALID,45,VALID,1.22383,
2011-07-15, 03:42:04,VALID,999.741,VALID,0,VALID,91.1511,VALID,0,VALID,22.4136,VALID,45,VALID,1.20195,
2011-07-15, 03:43:04,VALID,999.768,VALID,0,VALID,91.1587,VALID,0,VALID,22.4136,VALID,45,VALID,1.24453,
2011-07-15, 03:44:04,VALID,999.775,VALID,0,VALID,91.1053,VALID,0,VALID,22.4153,VALID,45,VALID,1.18555,
2011-07-15, 03:45:04,VALID,999.792,VALID,0,VALID,91.09,VALID,0,VALID,22.3746,VALID,45,VALID,1.35938,
2011-07-15, 03:46:04,VALID,999.819,VALID,0,VALID,91.09,VALID,0,VALID,22.3551,VALID,45,VALID,1.17031,
2011-07-15, 03:47:04,VALID,999.826,VALID,0,VALID,91.09,VALID,0,VALID,22.3373,VALID,45,VALID,1.11367,